EW4498 Weather Reports


Display with metric or nautical units.
time (UTC)temp
F
wind
direction
speed
MPH
gust
MPH
rain 1hr
in
rain 24hr
in
rain mn
in
humidity
%
barometer
mb
20260902143043 64 217 4.0 13.0 0.01 0.02 0.02 83 1014.9
20260902141544 66 277 7.0 11.0 0.00 0.01 0.01 75 1014.6
20260902140042 68 236 4.0 14.0 0.00 0.01 0.01 70 1014.5
20260902134542 67 254 9.0 16.0 0.00 0.04 0.01 71 1014.5
20260902133041 68 235 7.0 17.0 0.00 0.04 0.01 70 1014.6
20260902131540 67 234 7.0 16.0 0.00 0.04 0.01 72 1014.5
20260902130039 67 229 10.0 21.0 0.00 0.04 0.01 72 1014.7
20260902124538 68 225 8.0 15.0 0.00 0.04 0.01 72 1014.6
20260902123043 67 190 7.0 17.0 0.00 0.04 0.01 76 1014.8
20260902121536 67 274 5.0 15.0 0.00 0.04 0.01 76 1014.8
20260902120037 67 186 7.0 12.0 0.00 0.04 0.01 77 1014.9
20260902114539 68 220 7.0 16.0 0.00 0.04 0.01 74 1015.0
20260902113040 69 250 6.0 16.0 0.00 0.04 0.01 71 1014.9
20260902111533 70 279 6.0 18.0 0.00 0.04 0.01 68 1015.0
20260902110031 68 236 9.0 18.0 0.00 0.04 0.01 74 1015.0
20260902104530 69 218 5.0 17.0 0.00 0.05 0.01 72 1015.0
20260902103030 69 202 5.0 18.0 0.00 0.05 0.01 72 1015.0
20260902101529 69 247 7.0 19.0 0.00 0.05 0.01 73 1015.0
20260902100026 67 213 6.0 15.0 0.00 0.05 0.01 75 1015.0
20260902094520 66 244 8.0 19.0 0.00 0.05 0.01 76 1015.1
20260902093019 67 224 4.0 12.0 0.00 0.05 0.01 78 1015.1
20260902091516 66 232 8.0 15.0 0.00 0.05 0.01 77 1015.1
20260902090019 66 251 6.0 12.0 0.00 0.05 0.01 78 1015.2
20260902084522 66 227 5.0 11.0 0.00 0.05 0.01 81 1015.3
20260902083010 64 228 3.0 11.0 0.00 0.05 0.01 84 1015.2
20260902081507 63 214 4.0 11.0 0.00 0.05 0.01 83 1015.2
20260902080005 63 236 6.0 12.0 0.00 0.05 0.01 83 1015.2
20260902074501 63 226 6.0 12.0 0.00 0.05 0.01 84 1015.2
20260902073100 62 219 5.0 11.0 0.00 0.05 0.01 85 1015.1
20260902071600 62 221 4.0 7.0 0.00 0.05 0.01 87 1015.0
20260902070053 61 205 3.0 9.0 0.00 0.05 0.01 87 1015.0
20260902064600 61 226 4.0 8.0 0.00 0.05 0.01 88 1015.0
20260902063148 60 230 3.0 10.0 0.00 0.05 0.01 89 1015.0
20260902060043 59 268 3.0 7.0 0.00 0.05 0.01 90 1015.0
20260902054548 59 236 3.0 5.0 0.00 0.05 0.01 91 1015.0
20260902053045 58 201 2.0 5.0 0.00 0.05 0.01 91 1014.9
20260902051538 58 250 2.0 6.0 0.00 0.05 0.01 91 1014.9
20260902050034 58 216 2.0 5.0 0.00 0.05 0.01 91 1014.8
20260902044532 57 213 2.0 5.0 0.00 0.05 0.01 91 1015.0
20260902043031 57 215 2.0 6.0 0.00 0.05 0.01 92 1014.9
20260902041530 56 200 3.0 6.0 0.00 0.05 0.01 92 1014.9
20260902040032 55 212 3.0 6.0 0.01 0.05 0.01 92 1015.0
20260902034529 55 225 0.0 3.0 0.01 0.05 0.01 92 1014.9
20260902033028 55 213 2.0 5.0 0.01 0.05 0.01 92 1015.0
20260902031528 54 213 0.0 4.0 0.01 0.05 0.01 91 1015.1
20260902030027 54 239 0.0 2.0 0.00 0.04 0.00 91 1015.0
20260902024527 54 240 0.0 3.0 0.00 0.05 0.00 92 1015.1
20260902023034 53 267 0.0 0.0 0.00 0.05 0.00 91 1015.1
20260902021525 53 267 0.0 0.0 0.00 0.05 0.00 91 1015.0
20260902020026 53 267 0.0 0.0 0.00 0.05 0.00 90 1015.0
20260902014533 54 267 0.0 0.0 0.00 0.05 0.00 89 1015.0
20260902013021 54 267 0.0 0.0 0.00 0.05 0.00 90 1014.9
20260902011538 54 267 0.0 0.0 0.00 0.05 0.00 89 1015.0
20260902010019 55 267 0.0 0.0 0.00 0.05 0.00 87 1015.0
20260902004517 55 267 0.0 0.0 0.00 0.05 0.00 87 1015.1
20260902003014 56 267 0.0 0.0 0.00 0.05 0.00 86 1015.1
20260902001513 57 267 0.0 3.0 0.00 0.05 0.00 86 1015.1
20260902000010 57 259 0.0 3.0 0.00 0.05 0.00 86 1015.0
20260901234508 58 300 0.0 5.0 0.00 0.05 0.00 86 1015.2
20260901233006 58 319 0.0 6.0 0.00 0.05 0.00 86 1015.2
20260901231506 59 306 1.0 5.0 0.00 0.05 0.00 87 1015.2
20260901230004 59 231 1.0 5.0 0.00 0.05 0.00 88 1015.1
20260901224606 59 246 0.0 7.0 0.00 0.05 0.00 89 1014.9
20260901223057 59 236 1.0 5.0 0.00 0.05 0.00 90 1014.9
20260901221600 58 258 0.0 0.0 0.00 0.05 0.00 89 1014.8
20260901220052 59 259 0.0 4.0 0.00 0.05 0.00 89 1014.8
20260901214600 59 234 0.0 2.0 0.00 0.05 0.05 88 1014.7
20260901213055 59 248 0.0 3.0 0.00 0.05 0.05 88 1014.7
20260901211550 59 231 1.0 3.0 0.00 0.05 0.05 87 1014.5
20260901210147 59 246 1.0 5.0 0.00 0.05 0.05 87 1014.4
20260901204545 59 247 0.0 2.0 0.00 0.05 0.05 86 1014.4
20260901203013 60 249 1.0 5.0 0.00 0.05 0.05 85 1014.3
20260901201555 60 244 0.0 4.0 0.00 0.05 0.05 84 1014.3
20260901200037 60 246 0.0 3.0 0.00 0.05 0.05 84 1014.2
20260901194642 61 258 1.0 6.0 0.00 0.06 0.05 84 1014.1
20260901191639 62 224 1.0 5.0 0.00 0.06 0.05 83 1014.0
20260901190053 62 257 1.0 5.0 0.00 0.06 0.05 82 1013.9
20260901184502 63 246 1.0 5.0 0.00 0.06 0.05 80 1013.7
20260901181616 64 257 1.0 6.0 0.00 0.06 0.05 78 1013.4
20260901180056 64 230 1.0 8.0 0.00 0.06 0.05 77 1013.3
20260901174558 65 235 1.0 9.0 0.00 0.06 0.05 77 1013.2
20260901173151 66 221 2.0 5.0 0.00 0.06 0.05 76 1013.0
20260901171544 66 259 1.0 6.0 0.00 0.06 0.05 75 1012.9
20260901170146 66 215 2.0 8.0 0.00 0.06 0.05 74 1012.9
20260901164556 66 229 1.0 5.0 0.00 0.06 0.05 75 1012.8
20260901163006 67 232 2.0 6.0 0.00 0.06 0.05 74 1012.8
20260901161627 67 238 2.0 10.0 0.00 0.06 0.05 73 1012.6
20260901160050 67 226 3.0 8.0 0.00 0.06 0.05 74 1012.6
20260901154602 66 239 4.0 9.0 0.00 0.07 0.05 77 1012.6
20260901153139 66 246 4.0 11.0 0.00 0.07 0.05 77 1012.5
20260901151602 66 236 3.0 9.0 0.00 0.07 0.05 80 1012.4
20260901144543 66 244 4.0 9.0 0.00 0.08 0.05 78 1012.4